Location: Newark
(36.0797°N, 3.9744°E)
Time: 07:23:25
(UTC+00:00)

Vanguard 2 Rocket - Pass Details

Date: 09 December 2019
Orbit: 554 x 3326 km, 32.9° (Epoch: 18 January)

Event Time Altitude Azimuth Distance (km) Brightness Sun altitude
Rises 21:17:45 0° 273° (W) 4,992 11.2 -57.3°
Reaches altitude 10° 21:21:48 10° 270° (W) 3,542 10.2 -58.0°
Enters shadow 21:22:37 13° 269° (W) 3,247 10.0 -58.2°
Maximum altitude 21:29:50 60° 193° (SSW) 1,057 - -59.6°
Drops below altitude 10° 21:34:41 10° 114° (ESE) 2,170 - -60.5°
Sets 21:36:39 0° 110° (ESE) 2,935 - -60.9°
